Нови Сад, метеограме

Нови Сад: време по сату
Среда, 21 Априла
Време Падавине Температура Осећа се Притисак Влажност Ветар
21:00 0.01 мм +10.4° +10.2° 749.000 мм.ж.с 64% 2 м/с, Ј
22:00 0.01 мм +10.1° +9.8° 749.000 мм.ж.с 65% 2 м/с, Ј
23:00 0.03 мм +9.8° +9.6° 749.000 мм.ж.с 68% 2 м/с, Ј
Четвтак, 22 Априла
Време Падавине Температура Осећа се Притисак Влажност Ветар
00:00 0.03 мм +9.5° +9.4° 749.000 мм.ж.с 70% 2 м/с, Ј
01:00 0.03 мм +9.3° +9.2° 749.000 мм.ж.с 72% 2 м/с, ЈЗ
02:00 0.03 мм +8.6° +8.6° 749.000 мм.ж.с 75% 2 м/с, ЈЗ
03:00 0.03 мм +8° +8° 749.000 мм.ж.с 77% 2 м/с, ЈЗ
04:00 0.03 мм +7.4° +7.4° 749.000 мм.ж.с 80% 2 м/с, ЈЗ
05:00 0 мм +8.5° +8.5° 750.000 мм.ж.с 76% 2 м/с, ЈЗ
06:00 0 мм +9.6° +9.5° 750.000 мм.ж.с 73% 2 м/с, ЈЗ
07:00 0 мм +10.7° +10.6° 750.000 мм.ж.с 69% 2 м/с, ЈЗ
08:00 0 мм +12.4° +12.3° 750.000 мм.ж.с 63% 2 м/с, ЈЗ
09:00 0 мм +14.2° +13.8° 750.000 мм.ж.с 56% 2 м/с, ЈЗ
10:00 0 мм +15.9° +15.4° 750.000 мм.ж.с 49% 2 м/с, ЈЗ
11:00 0 мм +16.6° +16° 750.000 мм.ж.с 46% 2 м/с, З
12:00 0 мм +17.2° +16.5° 750.000 мм.ж.с 42% 3 м/с, З
13:00 0 мм +17.9° +16.9° 750.000 мм.ж.с 38% 3 м/с, З
14:00 0 мм +17.7° +16.9° 749.000 мм.ж.с 41% 3 м/с, З
15:00 0 мм +17.4° +16.7° 749.000 мм.ж.с 43% 3 м/с, З
16:00 0 мм +17.2° +16.6° 749.000 мм.ж.с 45% 2 м/с, ЈЗ
17:00 0 мм +15.7° +15.1° 749.000 мм.ж.с 49% 2 м/с, ЈЗ
18:00 0 мм +14.1° +13.7° 749.000 мм.ж.с 54% 2 м/с, ЈЗ
19:00 0 мм +12.6° +12.3° 749.000 мм.ж.с 59% 2 м/с, ЈЗ
20:00 0.11 мм +11.6° +11.5° 749.000 мм.ж.с 67% 2 м/с, СЗ
21:00 0.11 мм +10.7° +10.8° 750.000 мм.ж.с 75% 3 м/с, С
22:00 0.11 мм +9.8° +10° 750.000 мм.ж.с 83% 4 м/с, С
23:00 0.13 мм +9.2° +9.5° 751.000 мм.ж.с 84% 4 м/с, С
Петак, 23 Априла
Време Падавине Температура Осећа се Притисак Влажност Ветар
00:00 0.13 мм +8.7° +8.9° 751.000 мм.ж.с 84% 4 м/с, С
01:00 0.13 мм +8.2° +8.4° 751.000 мм.ж.с 85% 5 м/с, С
02:00 0.04 мм +7.9° +8° 752.000 мм.ж.с 82% 4 м/с, С
03:00 0.04 мм +7.5° +7.5° 752.000 мм.ж.с 79% 3 м/с, С
04:00 0.04 мм +7.1° +7.1° 752.000 мм.ж.с 77% 1 м/с, СЗ
05:00 0 мм +7.6° +7.5° 753.000 мм.ж.с 73% 2 м/с, СЗ
06:00 0 мм +8.1° +7.9° 753.000 мм.ж.с 70% 2 м/с, СЗ
07:00 0 мм +8.6° +8.3° 754.000 мм.ж.с 67% 3 м/с, СЗ
08:00 0 мм +10° +9.6° 754.000 мм.ж.с 59% 3 м/с, СЗ
09:00 0 мм +11.4° +10.8° 754.000 мм.ж.с 52% 4 м/с, СЗ
10:00 0 мм +12.7° +11.9° 754.000 мм.ж.с 44% 4 м/с, СЗ
11:00 0 мм +13.3° +12.5° 754.000 мм.ж.с 43% 4 м/с, СЗ
12:00 0 мм +13.8° +12.9° 754.000 мм.ж.с 41% 5 м/с, СЗ
13:00 0 мм +14.4° +13.5° 754.000 мм.ж.с 40% 5 м/с, СЗ
14:00 0 мм +14.3° +13.3° 753.000 мм.ж.с 40% 5 м/с, СЗ
15:00 0 мм +14.2° +13.3° 753.000 мм.ж.с 41% 5 м/с, С
16:00 0 мм +14° +13.1° 753.000 мм.ж.с 41% 5 м/с, С
17:00 0 мм +12.5° +11.8° 753.000 мм.ж.с 47% 3 м/с, С
18:00 0 мм +10.9° +10.4° 754.000 мм.ж.с 53% 2 м/с, С
19:00 0 мм +9.4° +8.9° 754.000 мм.ж.с 58% 1 м/с, С
20:00 0 мм +8.8° +8.4° 754.000 мм.ж.с 60% 1 м/с, С

Такође

Meteograms hourly weather Мапе времена Преглед времена
Meteograms hourly weather Мапе времена Преглед времена
 
Време у Србији:
О проjекту
© meteoprog.rs 2003-2021.
Meteoprog.ua - погода в Украине 0.0498
sitemap